Terminal Aerodrome Forecast
Issued by NWS Austin/San Antonio, TX

Home | Current Version | Previous Version | Text Only | Print | Product List | Glossary On
Versions: 1 2 3 4 5 6 7 8 9 10 11 12 13 14 15 16 17 18 19 20
000
FTUS44 KEWX 051734
TAFDRT
TAF
KDRT 051734Z 0518/0618 12012G20KT P6SM FEW035
     FM051900 13014G24KT P6SM SCT050
     FM060300 12011KT P6SM SCT050
     FM061000 11009KT P6SM OVC015
     FM061600 13012KT P6SM BKN025=

USA.gov is the U.S. government's official web portal to all federal, state and local government web resources and services.